Probability
0 0 0 0 0 0 0 0 0 0 0 0 0 0 0 0 0 0 0 0 0 0 0 0 0 0 0 0 0 0 0 0 0 0 0 0 0 0 0 0 0 0 0 0
0 0 0 0 0 0 0 0 0 0 0 0 0 0 0 0 0 0 0 0 0 0 0 0 0 0 0 0 0 0 0 0 0 0 0 0 0 0 0 0 0 0 0 0
0 0 0 0 0 0 0 0 0 0 0 0 0 0 0 0 0 0 0 0 0 0 0 0 0 0 0 0 0 0 0 0 0 0 0 0 0 0 0 0 0 0 0 0
0 0 0 0 0 0 0 0 0 0 0 0 0 0 0 0 0 0 0 0 0 0 0 0 0 0 0 0 0 0 0 0 0 0 0 0 0 0 0 0 0 0 0 0
0 0 0 0 0 0 0 0 0 0 0 0 0 0 0 0 0 0 0 0 0 0 0 0 0 0 0 0 0 0 0 0 0 0 0 0 0 0 0 0 0 0 0 0
0 0 0 0 0 0 0 0 0 0 0 0 0 0 0 0 0 0 0 0 0 0 0 0 0 0 0 0 0 0 0 0 0 0 0 0 0 0 0 0 0 0 0 0
0 0 0 0 0 0 0 0 0 0 0 0 0 0 0 0 0 0 0 0 0 0 0 0 0 0 0 0 0 0 0 0 0 0 0 0 0 0 0 0 0 0 0 0
0 0 0 0 0 0 0 0 0 0 0 0 0 0 0 0 0 0 0 0 0 0 0 0 0 0 0 0 0 0 0 0 0 0 0 0 0 0 0 0 0 0 0 0
0 0 0 0 0 0 0 0 0 0 0 0 0 0 0 0 0 0 0 0 0 0 0 0 0 0 0 0 0 0 0 0 0 0 0 0 0 0 0 0 0 0 0 0
0 0 0 0 0 0 0 0 0 0 0 0 0 0 0 0 0 0 0 0 0 0 0 0 0 0 0 0 0 0 0 0 0 0 0 0 0 0 0 0 0 0 0 0
0 0 0 0 0 0 0 0 0 0 0 0 0 0 0 0 0 0 0 0 0 0 0 0 0 0 0 0 0 0 0 0 0 0 0 0 0 0 0 0 0 0 0 0
0 0 0 0 0 0 0 0 0 0 0 0 0 0 0 0 0 0 0 0 0 0 0 0 0 0 0 0 0 0 0 0 0 0 0 0 0 0 0 0 0 0 0 0
0 0 0 0 0 0 0 0 0 0 0 0 0 0 0 0 0 0 0 0 0 0 0 0 0 0 0 0 0 0 0 0 0 0 0 0 0 0 0 0 0 0 0 0
0 0 0 0 0 0 0 0 0 0 0 0 0 0 0 0 0 0 0 0 0 0 0 0 0 0 0 0 0 0 0 0 0 0 0 0 0 0 0 0 0 0 0 0
0 0 0 0 0 0 0 0 0 0 0 0 0 0 0 0 0 0 0 0 0 0 0 0 0 0 0 0 0 0 0 0 0 0 0 0 0 0 0 0 0 0 0 0
0 0 0 0 0 0 0 0 0 0 0 0 0 0 0 0 0 0 0 0 0 0 0 0 0 0 0 0 0 0 0 0 0 0 0 0 0 0 0 0 0 0 0 0
0 0 0 0 0 0 0 0 0 0 0 0 0 0 0 0 0 0 0 0 0 0 0 0 0 0 0 0 0 0 0 0 0 0 0 0 0 0 0 0 0 0 0 0
0 0 0 0 0 0 0 0 0 0 0 0 0 0 0 0 0 0 0 0 0 0 0 0 0 0 0 0 0 0 0 0 0 0 0 0 0 0 0 0 0 0 0 0
0 0 0 0 0 0 0 0 0 0 0 0 0 0 0 0 0 0 0 0 0 0 0 0 0 0 0 0 0 0 0 0 0 0 0 0 0 0 0 0 0 0 0 0
0 0 0 0 0 0 0 0 0 0 0 0 0 0 0 0 0 0 0 0 0 0 0 0 0 0 0 0 0 0 0 0 0 0 0 0 0 0 0 0 0 0 0 0
0 0 0 0 0 0 0 0 0 0 0 0 0 0 0 0 0 0 0 0 0 0 0 0 0 0 0 0 0 0 0 0 0 0 0 0 0 0 0 0 0 0 0 0
0 0 0 0 0 0 0 0 0 0 0 0 0 0 0 0 0 0 0 0 0 0 0 0 0 0 0 0 0 0 0 0 0 0 0 0 0 0 0 0 0 0 0 0
0 0 0 0 0 0 0 0 0 0 0 0 0 0 0 0 0 0 0 0 0 0 0 0 0 0 0 0 0 0 0 0 0 0 0 0 0 0 0 0 0 0 0 0
0 0 0 0 0 0 0 0 0 0 0 0 0 0 0 0 0 0 0 0 0 0 0 0 0 0 0 0 0 0 0 0 0 0 0 0 0 0 0 0 0 0 0 0
0 0 0 0 0 0 0 0 0 0 0 0 0 0 0 0 0 0 0 0 0 0 0 0 0 0 0 0 0 0 0 0 0 0 0 0 0 0 0 0 0 0 0 0
0 0 0 0 0 0 0 0 0 0 0 0 0 0 0 0 0 0 0 0 0 0 0 0 0 0 0 0 0 0 0 0 0 0 0 0 0 0 0 0 0 0 0 0
0 0 0 0 0 0 0 0 0 0 0 0 0 0 0 0 0 0 0 0 0 0 0 0 0 0 0 0 0 0 0 0 0 0 0 0 0 0 0 0 0 0 0 0
Wind_Speed
6 4 5 8 10 12 14 13 12 11 10 9 7 6 7 8 10 12 13 14 15 14 12 12 11 10 9 8 7 7 6 5 4 3 2 1 1 1 1 2 3 3 4 4
6 5 7 10 11 13 14 14 14 14 13 9 6 5 7 9 11 13 14 15 15 14 14 13 13 11 10 9 8 7 6 5 4 3 2 2 1 1 1 2 3 3 4 4
6 3 6 11 11 13 12 12 12 13 11 6 6 7 8 9 12 13 14 14 15 15 14 13 13 12 11 10 9 8 7 5 5 4 3 3 2 1 1 2 2 3 4 4
6 6 10 3 2 5 9 11 11 11 9 7 6 5 6 8 10 12 12 13 13 13 13 12 12 11 10 10 9 8 7 6 5 5 4 3 2 2 3 2 2 3 4 4
6 9 9 6 3 5 6 7 6 9 7 4 3 4 6 7 8 10 10 10 10 11 11 11 12 12 11 11 10 9 8 7 7 6 5 4 3 3 3 2 3 3 4 5
7 9 8 3 2 2 5 5 1 4 4 3 5 5 3 4 6 7 7 8 8 9 11 11 12 12 12 11 10 10 9 8 7 6 6 5 4 4 3 3 4 4 4 5
11 10 8 2 3 5 6 1 3 1 2 5 6 2 2 4 5 6 7 8 8 10 10 10 11 12 12 11 11 9 8 7 7 6 6 6 5 4 4 4 4 5 5 5
8 9 6 4 5 4 3 5 1 1 2 4 3 1 1 3 4 6 6 8 9 9 9 9 11 12 12 11 9 8 8 8 7 7 6 5 5 5 5 5 5 5 5 5
5 3 3 2 2 3 4 4 2 2 2 3 2 2 1 2 4 5 6 7 7 8 8 9 10 11 12 10 9 9 8 8 8 7 6 6 6 6 6 5 5 5 5 5
6 5 3 3 3 3 3 4 3 2 1 2 3 2 2 2 3 4 5 6 6 8 8 9 9 10 10 8 9 9 9 8 8 8 7 7 5 6 6 6 6 6 6 6
7 5 3 2 2 3 2 2 2 1 0 1 2 2 2 2 3 3 4 4 6 7 7 8 8 9 9 9 9 10 9 8 8 7 7 7 6 6 7 7 6 6 6 6
5 3 4 3 2 2 2 2 1 0 0 0 1 2 2 2 2 2 3 4 5 6 6 7 8 8 8 8 9 10 9 8 7 6 6 6 6 6 7 8 7 9 10 10
6 4 4 4 3 2 2 2 1 1 1 1 1 1 2 1 1 2 2 3 5 5 6 6 6 7 7 8 9 10 9 8 6 6 6 7 7 7 7 7 10 11 12 12
3 3 3 2 2 2 1 0 1 1 1 1 1 1 1 1 1 1 2 3 3 4 5 5 6 6 6 7 8 9 8 7 7 6 6 7 7 7 7 8 7 7 9 12
3 3 3 1 1 0 1 1 2 2 2 2 2 1 1 1 1 1 1 1 2 3 4 5 5 5 5 6 7 8 7 6 6 6 6 7 7 8 8 9 8 8 7 7
2 2 1 1 1 1 1 1 1 1 1 1 1 0 1 1 1 1 1 1 3 3 4 4 5 5 5 6 7 6 6 7 7 7 7 7 7 8 8 8 9 8 8 8
3 3 2 2 1 1 1 1 1 1 1 1 1 1 1 1 1 1 1 2 3 3 4 4 4 4 5 6 7 6 6 6 8 8 8 7 7 8 8 8 9 9 9 8
4 3 3 3 3 2 1 1 1 1 1 1 1 1 1 2 2 2 2 2 3 3 3 3 3 4 5 6 6 5 6 6 6 7 7 8 8 8 8 9 10 11 9 8
2 2 2 2 2 2 1 1 1 1 1 1 1 2 2 2 2 2 2 2 3 3 3 3 3 5 6 5 5 6 6 7 7 7 7 8 9 9 9 9 10 10 10 9
1 1 1 1 1 1 1 1 1 1 1 1 1 1 1 2 2 2 2 3 3 3 4 4 5 5 5 5 5 6 7 8 8 8 8 8 9 9 9 10 10 10 10 9
0 0 0 0 0 1 1 1 1 1 1 2 2 2 2 2 2 3 3 3 3 4 4 4 4 4 4 4 6 6 7 7 8 8 8 8 9 9 10 10 10 10 10 9
0 0 1 1 1 1 1 1 1 1 2 2 3 3 3 4 4 4 4 4 4 4 4 4 5 5 5 7 6 7 7 8 8 8 8 8 9 9 10 10 10 10 9 9
0 1 1 1 1 1 1 1 1 2 2 3 3 4 4 4 4 4 5 4 4 5 5 5 6 7 9 8 7 7 8 9 9 9 9 9 9 9 10 11 10 10 9 9
1 1 1 1 1 1 1 2 2 2 2 3 3 4 4 4 4 4 4 4 5 6 6 6 8 10 10 7 7 8 8 8 9 9 9 9 9 9 9 10 10 10 10 11
1 1 1 2 2 2 2 2 2 2 2 2 3 3 4 4 4 5 5 6 6 7 7 7 9 10 8 7 7 8 8 8 9 9 9 9 9 9 9 9 9 10 9 10
2 2 2 2 2 2 2 2 2 2 3 3 3 3 3 3 5 5 5 6 8 8 7 6 6 7 7 7 8 8 8 9 9 9 9 9 10 10 9 9 12 10 9 9
2 2 2 2 2 2 2 2 3 3 3 3 4 4 4 4 5 5 6 6 6 6 6 6 6 6 7 7 7 8 8 8 8 8 8 8 8 8 9 11 9 9 8 9
Wind_Direction
268 273 239 238 228 218 229 248 260 265 259 264 265 246 221 200 189 186 187 188 188 187 185 183 183 182 180 178 177 178 180 188 190 187 187 204 200 273 325 332 323 329 329 332
245 236 239 249 245 234 236 246 252 261 264 264 264 235 210 199 191 194 194 194 192 191 189 189 187 185 182 181 180 181 185 186 179 189 185 201 220 259 313 318 324 328 322 329
257 220 242 249 241 234 230 231 239 248 257 253 241 228 218 205 200 201 199 196 194 193 192 192 190 186 183 182 177 182 186 184 183 189 190 203 213 229 258 277 312 317 319 322
267 248 253 281 78 240 242 246 243 254 264 258 258 251 234 217 206 204 199 196 195 193 190 190 187 183 181 179 181 186 189 189 189 193 195 199 213 234 254 277 296 301 309 312
254 260 267 266 223 210 232 254 251 247 255 253 244 219 217 208 211 208 199 195 192 190 185 184 183 181 181 183 186 189 193 195 193 195 197 201 212 229 248 271 281 287 298 302
243 256 261 287 101 183 235 247 275 249 241 205 193 222 200 170 198 200 191 185 181 180 181 182 181 181 187 189 190 194 195 198 197 199 202 208 218 230 239 254 268 278 286 292
242 252 262 354 121 184 229 346 48 248 217 193 213 279 51 151 174 180 175 174 175 178 181 182 179 183 192 195 198 196 194 197 200 203 209 214 221 229 239 250 263 273 279 282
226 237 247 103 160 213 332 11 15 295 238 218 239 336 104 154 163 168 168 171 176 179 181 181 182 188 196 200 197 190 190 197 204 208 211 213 220 233 242 250 257 265 274 281
231 252 35 151 236 319 331 323 335 312 281 232 225 206 159 161 163 169 171 172 178 181 180 183 188 196 201 195 189 189 194 201 208 211 214 220 223 229 238 246 257 267 274 281
243 252 260 258 267 282 292 308 325 319 289 215 207 194 177 170 169 172 176 174 177 182 187 189 191 200 206 193 190 196 201 206 210 215 217 221 229 234 239 245 253 263 272 278
247 265 272 232 257 289 302 312 328 359 350 193 184 186 179 175 176 175 173 175 183 192 195 196 194 200 203 198 198 205 209 212 216 221 224 229 230 240 246 248 257 264 271 275
256 280 271 283 317 312 278 274 277 276 277 191 178 174 169 165 164 171 177 180 187 194 200 201 198 200 201 202 205 211 216 217 220 222 225 231 238 239 238 249 248 247 257 269
289 312 291 297 303 297 271 267 252 209 186 177 167 160 165 156 160 172 184 194 198 199 202 204 203 204 202 203 207 216 221 223 224 229 230 235 240 247 252 241 235 241 245 249
270 275 262 279 297 305 286 215 146 135 124 125 126 134 144 147 157 189 207 212 210 208 210 210 212 214 209 205 209 218 225 228 230 234 239 242 246 249 253 259 258 253 240 237
248 255 260 293 312 47 97 124 126 116 106 104 111 131 151 178 201 220 223 213 211 216 218 218 221 224 218 213 215 222 227 230 232 237 240 245 249 253 255 258 261 264 265 249
247 230 209 200 176 128 127 133 133 123 117 125 129 168 211 228 236 237 227 214 221 232 235 231 232 231 223 220 224 230 233 234 238 243 243 245 248 252 255 258 261 264 265 268
206 209 213 223 218 217 213 219 237 224 211 214 235 235 226 232 242 249 251 244 245 254 252 246 247 245 234 231 232 237 241 234 229 243 248 250 251 254 257 259 261 263 265 267
240 250 247 235 232 233 232 234 236 236 233 245 240 222 224 238 256 267 269 258 255 263 266 265 265 261 248 246 247 250 249 248 244 246 250 251 254 258 260 261 263 266 270 265
231 239 234 228 230 232 237 241 237 231 218 207 214 229 243 255 269 276 275 268 269 274 286 291 276 262 259 255 257 254 255 254 253 253 254 253 253 257 260 263 265 267 268 269
197 209 209 208 211 224 236 244 239 228 220 214 218 236 252 267 273 269 266 269 275 289 295 301 282 271 269 263 255 260 259 259 261 261 260 261 262 263 263 264 266 268 268 267
166 163 227 275 302 279 253 241 225 220 224 228 237 247 261 270 271 271 270 275 292 307 301 288 277 276 277 282 264 266 265 265 265 265 264 264 267 269 270 269 268 269 269 269
57 356 325 318 300 296 293 272 247 238 237 243 254 262 266 270 274 275 274 281 294 301 291 283 282 290 292 287 273 269 268 268 268 269 269 269 270 272 272 273 271 270 269 269
330 326 308 293 283 293 299 283 262 251 247 251 259 264 269 277 279 278 284 297 297 301 291 285 293 293 287 276 272 271 270 270 271 273 273 273 273 273 274 273 272 273 272 270
281 300 312 310 293 279 286 300 299 286 272 269 269 275 279 280 283 283 290 292 290 291 288 287 285 285 282 275 274 275 276 276 276 277 277 276 275 275 275 276 275 275 273 274
284 288 289 283 278 285 293 298 292 288 282 284 289 290 287 287 289 295 296 296 297 292 290 291 291 288 280 278 281 282 284 285 286 287 282 280 278 277 277 277 278 279 280 279
288 285 285 285 292 291 282 275 274 278 282 287 293 294 295 296 294 292 291 290 290 289 288 289 288 284 283 284 284 284 284 285 283 279 279 280 279 278 277 279 280 279 279 280
272 266 261 265 271 275 274 270 271 278 286 292 298 302 302 301 299 297 295 293 292 290 291 291 291 290 291 289 286 285 285 286 285 283 283 282 282 283 283 282 281 282 282 282